Tracking 17147 objects as of 3-July-2015
HD Live streaming from Space Station

SJ-7

Track SJ-7 now!
10-day predictions
SJ-7 is classified as:


NORAD ID: 28737
Int'l Code: 2005-024A
Perigee: 567.5 km
Apogee: 613.0 km
Inclination: 97.7 °
Period: 96.3 minutes
Semi major axis: 6961 km
RCS: 3.0015 m2 (large)
Launch date: July 5, 2005
Source: People's Republic of China (PRC)
Your satellite tracking list
Your tracking list is empty





NASA's NSSDC Master Catalog

Two Line Element Set (TLE):
1 28737U 05024A   15184.51938833  .00000392  00000-0  41008-4 0  9998
2 28737 097.6654 196.7977 0032690 176.8920 183.2536 14.94769921548170

Source of the keplerian elements: AFSPC

N2YO: 348